Вернуться в каталог

THOR ABLESTAR DEB

АктивенLEO
NORAD 136·DEBRIS·🇺🇸 United States

Запущен Jun 29, 1961 с Cape Canaveral Space Force Station

Loading…

Ближайшие Пролёты (ближайшие 24 часа)

TLE

СвежийSource: Space-Track

Эпоха: Sep 14, 2026, 10:53 UTC

1 00136U 61015W   26257.45388912  .00000848  00000-0  27753-3 0  9992
2 00136  67.5283  50.6983 0047415 308.3338  51.3515 14.42323673369635

Отслеживайте THOR ABLESTAR DEB в реальном времени с AllMySat

Download on the App Store